#timestamp,LO_Frequency,Hit,StdDev 
1589302815.8,286046998.8,N
1589302835.7,286046996.8,N
1589302855.5,286046999.5,N
1589302875.3,286046995.2,N
1589302895.2,286046996.7,N
1589302915.9,286046996.9,N
1589302935.7,286046999.0,N
1589302955.6,286046999.6,N
1589302975.4,286046999.0,N
1589302995.2,286046998.4,N
1589303015.1,286047000.6,N
1589303016.0,286047000.6,N
1589303035.8,286046999.7,N
1589303055.7,286047002.5,N
1589303075.5,286047002.7,N
1589303095.3,286047001.9,N
1589303115.2,286047002.5,N
1589303135.0,286047001.5,N
1589303135.9,286047001.5,N
1589303155.8,286047001.3,N
1589303175.6,286047005.5,N
1589303195.4,286047005.6,N
1589303215.3,286047003.4,N
1589303235.1,286047004.2,N
1589303255.8,286047005.1,N
1589303275.7,286047005.6,N
1589303295.5,286047003.3,N
1589303315.4,286047003.0,N
1589303335.2,286047005.8,N
1589303355.0,286047006.0,N
1589303355.9,286047006.0,N
1589303375.8,286047004.0,N
1589303395.6,286047005.4,N
1589303415.4,286047003.7,N
1589303435.3,286047003.4,N
1589303455.1,286047006.0,N
1589303475.9,286047003.6,N
1589303495.7,286047001.6,N
1589303515.5,286047003.5,N
1589303535.4,286047004.7,N
1589303555.2,286047006.8,Y
1589303575.0,286047002.2,P
1589303575.9,286047002.2,P
1589303595.8,286047002.7,P
1589303615.6,286047002.0,Y
1589303635.5,286046998.4,P
1589303655.3,286047000.7,N
1589303675.1,286046998.2,N
1589303695.9,286046998.2,N
1589303715.7,286046999.4,N
1589303735.5,286046999.2,N
1589303755.4,286046999.3,N
1589303775.2,286046999.2,N
1589303795.1,286046999.4,N
1589303796.0,286046999.4,N
1589303815.8,286046997.0,N
1589303835.6,286046997.7,N
1589303855.5,286046996.8,N
1589303875.3,286046997.0,N
1589303895.1,286046998.8,N
1589303915.9,286046999.5,N
1589303935.7,286046998.5,N
1589303955.6,286046998.4,N
1589303975.4,286047000.2,N
1589303995.2,286046999.9,N
1589304015.1,286047000.7,N
1589304016.0,286047000.7,N
1589304035.8,286047000.1,N
1589304055.6,286047001.5,N
1589304075.5,286047001.4,N
1589304095.3,286047003.6,N
1589304115.2,286047001.4,N
1589304135.9,286047003.7,N
1589304155.7,286047001.5,N
1589304175.6,286047000.0,N
1589304195.4,286047001.9,N
1589304215.2,286047002.2,N
1589304235.1,286047001.3,N
1589304236.0,286047001.3,N
1589304255.8,286047001.9,N
1589304275.7,286046999.8,N
1589304295.5,286047002.1,N
1589304315.3,286047000.1,N
1589304335.2,286047002.5,N
1589304355.0,286047002.8,N
1589304355.9,286047002.8,N
1589304375.8,286047002.6,N
1589304395.6,286047004.0,N
1589304415.4,286047003.4,N
1589304435.3,286047006.0,Y
1589304455.1,286047003.8,P
1589304475.9,286047002.1,N
1589304495.7,286047003.6,P
1589304515.5,286047003.7,Y
1589304535.4,286046999.2,P
1589304555.2,286046998.8,N
1589304575.0,286047001.1,N
1589304575.9,286047001.1,N
1589304595.8,286046998.8,N
1589304615.6,286046999.1,N
1589304635.5,286046999.4,N
1589304655.3,286046999.3,N
1589304675.1,286047001.2,N
1589304695.9,286047000.2,N
1589304715.7,286047000.5,N
1589304735.5,286047000.8,N
1589304755.4,286047000.5,N
1589304775.2,286047002.4,N
1589304795.1,286046999.8,N
1589304796.0,286046999.8,N
1589304815.8,286047003.6,Y
1589304835.6,286047003.4,P
1589304855.5,286047004.4,N
1589304875.3,286047003.7,N
1589304895.2,286047002.9,N
1589304915.9,286047004.3,Y
1589304935.7,286047002.3,P
1589304955.6,286046999.7,N
1589304975.4,286047002.7,N
1589304995.2,286046999.7,N
1589305015.1,286047000.8,N
1589305016.0,286047000.8,N
1589305035.8,286047000.1,N
1589305055.7,286047002.4,N
1589305075.5,286047001.5,N
1589305095.3,286047002.4,N
1589305115.2,286047000.6,N
1589305135.0,286046999.3,N
1589305135.9,286046999.3,N
1589305155.7,286046998.1,N
1589305175.6,286046998.9,N
1589305195.4,286046999.2,N
1589305215.3,286046996.7,N
1589305235.1,286046996.9,N
1589305236.0,286046996.9,N
1589305255.8,286046999.6,N
1589305275.7,286046998.2,N
1589305295.5,286046999.0,N
1589305315.3,286047000.7,N
1589305335.2,286047001.1,N
1589305355.0,286046998.2,N
1589305355.9,286046998.2,N
1589305375.8,286047000.0,N
1589305395.6,286047000.4,N
1589305415.4,286046998.4,N
1589305435.3,286046996.5,N
1589305455.1,286046998.8,N
1589305475.8,286046998.6,N
1589305495.7,286046998.2,N
1589305515.5,286046998.4,N
1589305535.4,286047000.8,N
1589305555.2,286046998.1,N
1589305575.0,286047000.5,N
1589305575.9,286047000.5,N
1589305595.8,286047000.2,N
1589305615.6,286047002.5,N
1589305635.4,286047001.9,N
1589305655.3,286047002.6,N
1589305675.1,286047002.6,N
1589305695.9,286047001.8,N
1589305715.7,286047001.7,N
1589305735.5,286047001.8,N
1589305755.4,286047001.9,N
1589305775.2,286047001.6,N
1589305795.0,286047002.4,N
1589305795.9,286047002.4,N
1589305815.8,286047000.1,N
1589305835.6,286047002.1,N
1589305855.5,286046999.7,N
1589305875.3,286047002.5,N
1589305895.1,286047002.7,N
1589305915.9,286047000.1,N
1589305935.7,286047002.8,N
1589305955.5,286047002.7,N
1589305975.4,286046999.9,N
1589305995.2,286046999.8,N
1589306015.1,286047001.2,N
1589306016.0,286047001.2,N
1589306035.8,286046998.6,N
1589306055.6,286046998.5,N
1589306075.5,286046998.2,N
1589306095.3,286046998.4,N
1589306115.1,286047000.0,N
1589306135.9,286046998.6,N
1589306155.7,286047000.1,N
1589306175.6,286047001.5,N
1589306195.4,286047004.4,N
1589306215.2,286047002.9,N
1589306235.1,286047001.9,N
1589306236.0,286047001.9,N
1589306255.8,286047001.4,N
1589306275.7,286047001.5,N
1589306295.5,286047001.4,N
1589306315.3,286047003.1,N
1589306335.2,286047003.3,N
1589306355.0,286047004.0,N
1589306355.9,286047004.0,N
1589306405.8,286047005.5,E
